Skip Page Navigation
NASA JPL Caltech
NASA Logo - Jet Propulsion Laboratory + View the NASA Portal
+ Center for Near-Earth Object Studies
JPL Home Earth Solar System Stars & Galaxies Technology
JPL Solar System Dynamics
BODIES ORBITS EPHEMERIDES TOOLS PHYSICAL DATA DISCOVERY FAQ SITE MAP
IMPORTANT: The SSD Announcement email list is now available. Major changes are coming in the near future, including possible hostname and/or URL changes. To be notified of such changes, subscribe to this email list.

Please visit this page for more details.


JPL Small-Body Database Browser
Search: [ help ]  
214314 (2005 JX33)
Classification: Main-belt Asteroid          SPK-ID: 2214314
Ephemeris | Orbit Diagram | Orbital Elements | Mission Design | Physical Parameters | Discovery Circumstances | Close-Approach Data ]

[ show orbit diagram ]
Orbital Elements at Epoch 2458600.5 (2019-Apr-27.0) TDB
Reference: JPL 16 (heliocentric ecliptic J2000)
 Element Value Uncertainty (1-sigma)   Units 
e .09178837355039053 4.8023e-08  
a 2.614769659904136 1.9986e-08 au
q 2.374764205612628 1.2013e-07 au
i 1.246800060676209 4.4904e-06 deg
node 76.76454345400646 0.00023711 deg
peri 228.3592582358485 0.00023885 deg
M 48.44907086190117 3.06e-05 deg
tp 2458392.658851105111
(2018-Oct-01.15885111)
0.00013004 TDB
period 1544.360134695551
4.23
1.7707e-05
4.848e-08
d
yr
n .2331062502276834 2.6727e-09 deg/d
Q 2.854775114195645 2.1821e-08 au
  Orbit Determination Parameters
   # obs. used (total)      335  
   data-arc span      6224 days (17.04 yr)  
   first obs. used      2002-11-13  
   last obs. used      2019-11-28  
   planetary ephem.      DE431  
   SB-pert. ephem.      SB431-N16  
   condition code      0  
   norm. resid. RMS      .59277  
   source      ORB  
   producer      Otto Matic  
   solution date      2019-Dec-04 16:57:41  

Additional Information
 Earth MOID = 1.35906 au 
 Jupiter MOID = 2.32172 au 
 T_jup = 3.401 
[ show covariance matrix ]

Ephemeris | Orbit Diagram | Orbital Elements | Mission Design | Physical Parameters | Discovery Circumstances | Close-Approach Data ]

Physical Parameter Table
Parameter Symbol Value Units Sigma Reference Notes
absolute magnitude H 16.4   n/a MPO454539  
diameter diameter 2.221 km 0.684 urn:nasa:pds:neowise_diameters_albedos::2.0[mainbelt] (http://adsabs.harvard.edu/abs/2011ApJ...741...68M)  
geometric albedo albedo 0.099   0.063 urn:nasa:pds:neowise_diameters_albedos::2.0[mainbelt] (http://adsabs.harvard.edu/abs/2011ApJ...741...68M)  

214314 (2005 JX33)          Discovered 2005-May-04 by Mt. Lemmon Survey at Mount Lemmon
Reference: 20090509/Numbers.arcLast Updated: 2009-05-11

[ show close-approach data ]
Ephemeris | Orbit Diagram | Orbital Elements | Mission Design | Physical Parameters | Discovery Circumstances | Close-Approach Data ]
ABOUT SSD CREDITS/AWARDS PRIVACY/COPYRIGHT GLOSSARY LINKS
FirstGov 2019-Dec-06 15:23 UT
(server date/time)  
NASA Home Page
Site Manager:   Ryan S. Park
Webmaster  Alan B. Chamberlin